Wind_Speed
32 32 33 33 33 34 36 37 40 40 40 38 38 39 39 40 41 41 42 43 44 46 47 48 51 53 55 56 57 58 57 57 56 55 54 54 53 52 51 51 50 49 48 47
32 33 34 35 33 34 35 36 38 39 40 39 41 40 40 40 42 42 42 44 44 46 47 49 50 52 54 55 55 56 57 55 55 55 55 54 54 53 53 52 51 51 50 49
33 33 35 35 32 33 34 35 37 39 38 40 41 40 41 41 42 42 43 43 45 46 47 48 50 51 53 54 55 55 56 55 54 55 55 54 54 54 53 53 52 51 50 50
34 34 36 33 32 33 34 33 35 36 37 39 40 40 41 42 42 43 43 43 45 46 47 48 49 51 53 54 54 55 55 55 54 54 55 55 54 54 53 52 51 50 50 50
33 34 35 32 32 32 33 33 33 34 35 36 38 38 39 40 41 42 44 44 45 47 47 48 49 50 51 53 54 55 55 55 54 54 54 55 55 54 53 52 51 51 51 50
33 35 35 31 30 31 33 33 32 33 33 35 36 37 36 37 39 40 41 43 43 44 46 47 48 50 50 51 52 53 54 54 54 54 54 54 54 54 54 53 52 52 51 50
34 36 35 31 30 30 31 31 32 33 33 34 36 36 36 35 36 39 40 41 42 43 44 46 47 49 50 51 52 53 53 53 53 54 53 52 53 53 53 53 52 52 51 50
34 36 33 31 31 31 31 31 31 33 33 33 34 35 35 35 35 37 39 41 41 41 41 43 46 47 48 50 51 52 53 53 52 52 53 52 52 52 52 52 52 51 51 49
35 34 32 32 32 32 32 32 31 32 32 32 32 34 35 35 35 35 38 40 40 40 39 41 44 46 48 50 51 52 52 52 52 51 52 51 51 51 50 51 50 50 49 48
33 31 30 31 31 32 33 33 32 32 32 32 32 31 32 33 35 35 35 38 40 41 40 40 42 45 46 48 50 51 52 52 53 52 52 51 50 50 51 50 49 47 47 46
32 30 31 31 32 32 32 32 32 32 32 33 33 32 32 32 33 34 34 35 37 39 41 40 41 43 44 46 48 50 51 52 53 53 53 51 49 48 48 48 48 47 45 45
32 32 33 33 32 32 32 32 32 32 32 33 32 32 32 32 33 34 35 34 35 38 39 39 40 41 42 44 46 47 49 50 52 53 51 50 49 47 46 46 46 46 45 43
33 32 33 33 33 33 33 33 33 32 32 33 32 32 32 32 32 33 35 35 35 36 37 38 40 40 40 42 45 46 47 48 49 49 50 50 49 47 46 44 44 44 44 43
32 32 32 31 32 32 32 32 32 32 32 32 33 33 32 32 32 33 34 35 36 36 37 38 40 41 41 41 42 44 45 47 47 47 48 49 49 48 46 44 43 42 41 41
31 32 31 31 30 30 30 30 31 31 31 31 31 33 33 33 33 34 35 36 36 37 37 38 40 41 41 40 41 42 42 44 45 45 46 46 46 46 46 44 42 41 40 40
30 31 31 30 29 29 29 29 29 29 29 29 30 30 32 33 34 35 36 37 38 38 38 38 38 40 41 40 40 41 40 41 43 44 44 45 45 45 44 44 43 42 41 40
29 29 29 29 28 28 28 28 29 29 29 29 30 30 31 32 33 34 35 36 36 38 38 37 37 39 41 41 41 42 42 41 41 42 43 43 45 44 43 43 43 42 41 39
27 27 27 27 27 26 26 27 28 28 28 28 28 28 29 30 31 32 33 35 35 36 37 37 37 38 39 41 41 42 43 42 42 42 42 43 43 43 43 42 42 41 41 39
26 25 25 26 25 25 25 26 26 26 26 26 26 26 27 28 29 31 32 32 33 34 36 36 36 37 38 40 41 41 41 41 42 42 41 41 42 41 41 40 40 40 40 39
25 24 24 24 24 24 24 24 24 25 25 25 25 25 25 27 28 29 31 31 31 33 35 35 36 36 37 39 41 41 41 41 42 41 41 40 40 40 40 40 39 38 39 39
24 23 23 23 23 23 23 23 23 23 24 24 24 24 24 25 27 28 29 30 31 33 34 35 35 35 37 38 40 40 40 40 40 40 40 39 39 39 39 38 38 38 39 38
23 23 23 23 22 22 22 22 22 22 22 23 22 22 23 24 25 26 27 28 29 31 33 34 35 35 36 37 38 38 38 39 39 39 39 39 39 38 37 36 37 37 36 37
22 21 22 22 21 21 21 21 21 21 21 22 22 21 21 22 23 23 24 25 27 29 30 32 33 34 34 35 36 37 37 38 38 39 38 37 38 38 36 35 35 35 34 34
21 21 21 21 20 21 21 21 20 20 20 21 20 20 20 20 20 21 22 24 25 27 28 29 31 32 32 32 34 35 35 36 37 38 38 38 38 38 36 35 34 33 34 34
22 21 21 21 20 20 20 20 20 20 20 20 19 19 19 19 19 20 21 22 23 24 25 27 28 29 30 31 31 32 34 35 35 36 36 37 37 37 35 34 33 32 32 33
21 21 20 20 20 19 19 19 19 19 19 18 18 18 18 18 18 19 19 21 22 23 23 24 25 26 28 29 29 29 31 33 33 34 35 36 36 36 34 33 31 31 31 31
20 19 19 19 18 18 18 17 17 18 17 17 17 17 17 17 17 17 18 19 20 21 22 23 23 24 26 27 28 28 29 31 32 33 33 34 34 34 32 31 30 29 29 29
Wind_Direction
274 271 268 266 265 264 263 263 263 260 257 254 251 247 245 241 238 236 234 233 233 233 232 230 229 229 230 230 229 228 228 229 230 232 233 234 235 236 238 240 242 243 245 248
276 272 270 268 267 267 267 265 264 261 257 255 253 249 245 243 241 240 238 236 235 233 233 231 230 229 229 229 230 230 229 229 230 231 233 234 236 237 238 240 241 243 246 248
278 275 271 270 269 269 267 266 264 262 260 256 254 249 245 242 242 241 240 239 237 235 234 232 231 230 230 230 230 231 230 230 231 232 233 234 236 238 239 239 241 243 246 248
277 275 273 275 272 270 269 267 266 263 260 256 252 249 246 244 242 241 241 241 239 237 235 233 231 231 231 231 230 230 231 231 232 233 234 235 236 238 239 239 241 243 245 247
276 276 277 276 275 274 271 267 265 263 259 256 252 249 246 244 243 242 241 241 240 238 236 234 232 230 231 231 231 231 231 232 233 234 235 236 237 238 239 239 241 243 245 247
275 277 278 278 275 274 272 268 264 262 260 255 251 249 247 245 243 242 241 240 239 237 236 235 233 231 230 230 230 230 230 231 233 234 235 235 236 237 238 240 241 243 245 247
276 277 277 276 275 273 272 270 266 263 261 257 253 250 248 245 243 241 239 238 237 236 234 233 232 232 231 230 229 229 229 231 232 233 234 234 235 236 238 239 241 243 244 246
274 275 277 276 272 271 272 270 268 264 262 258 253 250 248 246 243 241 239 237 237 235 233 231 230 230 230 229 229 229 229 230 231 232 233 234 235 237 239 240 241 242 244 246
275 276 275 274 271 269 269 269 267 264 261 257 253 251 249 247 245 242 238 237 236 235 234 231 230 229 229 229 229 229 229 229 230 231 232 233 235 236 238 240 241 242 243 245
275 275 274 273 272 270 268 266 264 262 259 255 252 251 250 248 245 243 240 237 236 236 236 233 230 229 229 229 229 229 229 229 229 230 231 233 234 235 237 239 241 242 243 244
275 274 272 272 272 271 269 266 263 260 257 255 253 251 250 247 245 243 240 237 236 235 235 235 232 230 230 229 229 228 228 228 229 230 232 233 233 234 236 237 238 241 243 245
275 273 270 271 271 269 267 265 262 259 257 255 252 249 248 246 245 244 241 238 236 234 234 234 232 230 231 230 229 229 229 229 230 230 230 231 233 233 235 236 237 239 241 244
275 274 273 273 272 269 266 264 263 261 258 255 252 250 248 247 245 244 242 240 237 234 233 234 233 231 230 229 228 230 230 230 229 229 229 230 231 232 233 234 235 237 239 240
273 274 274 274 273 270 267 265 263 260 257 254 252 252 250 249 247 244 241 240 239 237 234 233 231 231 230 228 228 228 229 228 228 229 229 230 231 233 233 234 235 236 238 239
273 274 274 274 274 272 269 265 263 261 258 256 255 253 252 249 246 244 241 239 240 239 237 234 231 230 231 230 229 227 227 227 227 228 229 231 232 232 232 233 234 235 237 240
275 275 275 275 274 272 269 266 264 262 260 258 258 256 253 249 246 244 242 240 239 239 238 236 234 232 231 230 228 227 227 228 227 228 230 231 233 233 232 232 233 236 238 240
277 277 277 277 275 272 268 265 263 262 260 260 258 256 254 249 246 244 242 240 239 238 236 235 233 231 231 230 229 227 228 229 230 231 232 232 232 232 232 232 233 235 238 239
280 280 279 278 275 271 267 266 264 263 260 259 257 255 253 250 247 245 241 238 236 236 235 234 233 230 229 229 228 227 229 230 231 232 232 232 232 232 232 232 232 234 236 239
279 279 279 278 276 272 268 267 265 263 261 261 258 257 253 250 249 246 242 238 236 235 234 235 234 232 230 229 228 226 227 229 230 231 231 231 230 229 229 229 231 233 236 239
277 277 278 278 277 274 271 268 265 263 261 259 259 258 255 251 249 247 242 239 237 235 234 235 234 232 230 229 227 226 226 227 228 229 230 231 230 229 229 230 232 234 236 239
276 277 278 277 275 272 271 269 266 263 260 260 260 259 256 252 249 245 241 239 238 236 233 233 233 231 230 228 226 226 225 224 225 227 227 228 228 228 228 229 232 235 236 238
276 276 278 278 275 272 270 268 265 262 259 259 260 258 255 251 247 244 241 239 237 235 232 232 232 230 229 227 225 224 224 223 224 225 226 225 225 225 225 227 231 233 236 237
278 277 278 278 275 271 268 265 264 262 261 260 258 255 252 248 244 241 240 239 235 233 232 231 229 227 226 226 225 223 222 221 221 222 222 223 223 223 224 226 229 232 234 234
277 276 276 276 275 272 268 265 263 263 262 260 256 254 251 247 244 242 239 234 232 231 231 228 225 223 223 223 222 221 220 219 219 219 220 221 220 220 222 225 227 229 231 233
277 275 273 272 272 271 268 265 263 263 262 260 255 252 250 247 242 238 234 230 228 226 224 222 222 220 220 221 220 218 217 217 217 216 217 218 219 219 222 225 226 228 230 233
275 273 271 270 270 270 269 266 264 263 261 257 253 250 248 245 239 233 230 228 223 219 218 217 217 216 217 217 214 213 213 214 214 215 215 216 218 219 221 224 225 228 229 231
274 271 269 269 268 266 266 265 263 261 256 251 248 245 242 239 233 228 224 220 215 214 214 214 213 213 213 212 210 210 211 212 213 214 214 215 217 219 222 223 224 225 227 230
Height
5528 5527 5526 5525 5526 5525 5524 5524 5524 5526 5527 5530 5530 5531 5534 5537 5540 5544 5549 5554 5559 5564 5569 5575 5581 5587 5594 5601 5608 5615 5622 5630 5637 5644 5650 5655 5660 5665 5670 5674 5679 5683 5686 5690
5518 5517 5515 5515 5516 5516 5515 5515 5514 5514 5517 5519 5518 5520 5523 5526 5530 5534 5539 5543 5548 5553 5558 5564 5570 5576 5583 5590 5597 5603 5611 5619 5625 5632 5638 5644 5649 5654 5659 5663 5668 5672 5676 5680
5507 5507 5504 5505 5508 5506 5505 5505 5504 5504 5507 5506 5508 5510 5513 5516 5519 5523 5528 5533 5537 5542 5547 5553 5559 5564 5571 5577 5584 5592 5599 5606 5613 5620 5626 5632 5637 5642 5647 5652 5657 5661 5665 5669
5497 5496 5493 5499 5497 5495 5494 5494 5494 5494 5494 5495 5497 5499 5502 5505 5508 5513 5517 5522 5526 5531 5536 5541 5547 5553 5559 5566 5573 5580 5587 5594 5601 5607 5613 5619 5625 5631 5636 5641 5645 5650 5654 5658
5487 5484 5483 5488 5487 5485 5483 5484 5484 5483 5484 5485 5486 5488 5491 5494 5497 5501 5506 5510 5514 5519 5524 5529 5535 5541 5548 5554 5561 5568 5575 5582 5589 5595 5601 5607 5613 5619 5624 5629 5634 5638 5642 5646
5477 5474 5474 5479 5476 5474 5473 5473 5474 5473 5474 5474 5476 5478 5482 5484 5487 5490 5494 5498 5502 5506 5512 5517 5523 5529 5536 5543 5549 5556 5563 5570 5576 5583 5589 5595 5601 5606 5612 5617 5622 5626 5630 5635
5467 5464 5464 5468 5465 5463 5464 5465 5464 5463 5464 5465 5466 5469 5471 5473 5476 5479 5483 5487 5491 5495 5500 5505 5511 5517 5524 5531 5537 5543 5550 5557 5564 5570 5577 5583 5588 5593 5599 5605 5610 5614 5619 5623
5457 5454 5458 5457 5454 5454 5454 5453 5453 5453 5454 5455 5456 5458 5460 5463 5466 5469 5472 5476 5480 5484 5488 5494 5499 5505 5511 5518 5525 5531 5538 5545 5552 5558 5564 5570 5576 5581 5587 5592 5597 5602 5607 5611
5448 5448 5447 5445 5443 5443 5442 5442 5442 5442 5443 5444 5446 5448 5450 5453 5456 5459 5462 5465 5469 5473 5478 5483 5488 5493 5500 5506 5512 5519 5526 5533 5539 5546 5552 5558 5564 5570 5575 5580 5585 5590 5595 5600
5436 5437 5436 5434 5432 5432 5431 5431 5431 5432 5432 5434 5435 5438 5440 5442 5445 5448 5451 5455 5458 5462 5467 5472 5477 5482 5488 5494 5500 5507 5514 5521 5527 5534 5540 5546 5552 5558 5563 5569 5574 5579 5584 5588
5426 5427 5424 5423 5422 5421 5420 5420 5420 5421 5422 5423 5425 5428 5430 5432 5435 5438 5441 5444 5448 5452 5456 5461 5466 5471 5476 5482 5488 5495 5502 5508 5515 5522 5528 5535 5541 5547 5552 5558 5563 5568 5573 5577
5416 5416 5413 5413 5412 5410 5410 5410 5410 5411 5412 5414 5415 5417 5420 5422 5425 5427 5431 5434 5438 5442 5446 5451 5455 5460 5466 5471 5477 5483 5490 5497 5503 5510 5516 5523 5529 5535 5540 5546 5551 5556 5561 5565
5405 5404 5402 5402 5401 5400 5399 5400 5400 5401 5402 5403 5405 5407 5409 5412 5414 5417 5420 5424 5428 5431 5436 5440 5445 5450 5455 5460 5466 5472 5478 5485 5491 5498 5504 5511 5517 5524 5529 5535 5539 5544 5549 5553
5394 5393 5392 5391 5390 5390 5389 5390 5390 5391 5392 5393 5395 5397 5399 5401 5404 5407 5410 5413 5417 5421 5425 5430 5434 5439 5444 5449 5455 5461 5467 5473 5479 5486 5493 5499 5506 5512 5518 5523 5529 5533 5538 5542
5384 5383 5382 5381 5381 5380 5380 5380 5380 5382 5383 5384 5385 5386 5388 5391 5393 5396 5399 5403 5406 5411 5415 5419 5424 5429 5433 5438 5444 5450 5456 5462 5468 5475 5481 5487 5493 5500 5506 5512 5517 5523 5527 5531
5375 5373 5372 5372 5371 5371 5370 5370 5371 5372 5373 5374 5375 5376 5377 5380 5382 5385 5388 5392 5396 5400 5404 5408 5413 5418 5422 5428 5434 5440 5446 5452 5457 5464 5470 5476 5482 5488 5494 5500 5506 5512 5517 5521
5365 5364 5363 5362 5362 5361 5361 5361 5361 5362 5363 5364 5365 5366 5367 5369 5372 5375 5378 5381 5385 5389 5393 5397 5402 5407 5412 5418 5424 5430 5436 5442 5447 5453 5459 5465 5471 5478 5484 5489 5495 5501 5506 5510
5356 5355 5354 5353 5352 5352 5352 5352 5352 5352 5353 5354 5355 5356 5357 5359 5362 5364 5367 5370 5374 5378 5383 5387 5391 5396 5401 5407 5413 5419 5425 5431 5437 5443 5449 5455 5460 5467 5473 5479 5484 5490 5495 5500
5347 5346 5345 5344 5343 5342 5342 5343 5343 5343 5344 5344 5345 5346 5348 5349 5352 5354 5356 5360 5363 5368 5373 5376 5381 5385 5391 5396 5402 5408 5414 5421 5426 5432 5438 5444 5450 5456 5462 5468 5474 5479 5484 5489
5339 5337 5336 5335 5334 5334 5334 5334 5334 5334 5335 5335 5336 5337 5338 5340 5341 5344 5346 5350 5354 5358 5362 5366 5371 5375 5380 5386 5391 5398 5404 5410 5416 5422 5428 5434 5440 5446 5452 5458 5463 5469 5474 5479
5330 5329 5328 5327 5326 5326 5325 5325 5326 5326 5326 5327 5327 5328 5329 5330 5332 5334 5337 5341 5344 5347 5351 5356 5360 5365 5370 5376 5381 5387 5393 5400 5406 5412 5418 5424 5430 5436 5442 5448 5454 5459 5464 5469
5322 5321 5320 5319 5318 5318 5317 5317 5317 5318 5318 5318 5319 5319 5320 5321 5323 5325 5328 5331 5335 5337 5342 5346 5351 5356 5361 5366 5372 5377 5383 5390 5396 5402 5408 5415 5421 5427 5433 5438 5444 5449 5454 5458
5314 5313 5312 5311 5310 5310 5310 5309 5309 5310 5310 5310 5311 5311 5312 5314 5315 5317 5320 5322 5325 5329 5333 5337 5342 5346 5352 5357 5363 5368 5374 5380 5387 5393 5399 5406 5412 5418 5424 5429 5435 5440 5445 5449
5306 5305 5304 5304 5303 5303 5303 5302 5302 5302 5302 5303 5303 5304 5305 5306 5308 5310 5312 5314 5317 5321 5325 5329 5333 5338 5343 5349 5354 5360 5366 5372 5378 5384 5391 5397 5403 5409 5415 5420 5426 5431 5435 5440
5298 5298 5297 5296 5296 5296 5295 5295 5295 5295 5295 5296 5297 5297 5298 5300 5301 5303 5305 5307 5310 5313 5317 5321 5326 5331 5336 5341 5346 5352 5358 5364 5370 5376 5383 5389 5395 5401 5407 5412 5417 5422 5426 5431
5290 5290 5289 5289 5289 5289 5288 5288 5288 5288 5289 5289 5290 5291 5292 5293 5295 5297 5299 5301 5304 5308 5311 5316 5320 5325 5330 5335 5340 5345 5351 5357 5363 5369 5375 5381 5387 5393 5399 5404 5409 5413 5417 5422
5283 5282 5282 5282 5282 5282 5282 5282 5282 5282 5282 5283 5284 5285 5286 5288 5289 5291 5294 5296 5299 5303 5307 5311 5315 5320 5324 5329 5334 5339 5345 5351 5356 5362 5368 5374 5379 5385 5391 5396 5401 5405 5409 5413